865  
ASPQ40 PGUM 310610  
RWRPQ  
WEATHER ROUNDUP FOR THE MARIANAS AND MICRONESIA  
NATIONAL WEATHER SERVICE TIYAN GU  
400 PM CHST SUN MAY 31 2020  
 
GUZ001>004-310700-  
MARIANA ISLANDS-  
 
CITY SKY/WX TMP DP RH WIND PRES REMARKS
 
GUAM AIRPORT MOSUNNY 84 75 74 E16 29.92F HX 92  
ANDERSEN AFB MOSUNNY 82 77 83 E16 29.93F HX 91  
ROTA AIRPORT NOT AVBL  
TINIAN AP MOSUNNY 88 73 62 E9 29.92F HX 96  
SAIPAN AP PTSUNNY 88 73 62 SE14 29.93F HX 96  
 

 
 
PMZ161-310700-  
REPUBLIC OF PALAU-  
 
CITY SKY/WX TMP DP RH WIND PRES REMARKS
 
KOROR AP PTSUNNY 88 77 70 NE13G20 29.85F HX 100  
KOROR WSO NOT AVBL  
 

 
 
PMZ171>174-310700-  
FEDERATED STATES OF MICRONESIA-  
 
CITY SKY/WX TMP DP RH WIND PRES REMARKS
 
YAP AIRPORT MOSUNNY 86 73 66 NE9 29.87F HX 93  
CHUUK AP PTSUNNY 86 82 89 VRB6 29.85S HX 105  
POHNPEI AP NOT AVBL  
POHNPEI WSO PTSUNNY 84 77 79 NE8 29.90R HX 94  
KOSRAE AP NOT AVBL  
 

 
 
PMZ181-310700-  
REPUBLIC OF THE MARSHALL ISLANDS-  
 
CITY SKY/WX TMP DP RH WIND PRES REMARKS
 
KWAJALEIN AP SUNNY 86 77 74 E12 29.90S HX 97  
MAJURO AP NOT AVBL  
MAJURO WSO PTSUNNY 82 75 78 E10 29.90R  
 

 
 
 
 
CLICK HERE TO GO TO PREVIOUS BULLETINS.

The Nexlab GU Page Main Text Page